Location: Cutler
(25.6150°N, 80.3110°W)
Time: 14:14:22
(UTC-04:00)

Vanguard 1 Rocket - All Passes

Search period start: 22 April 2018 00:00
Search period end: 02 May 2018 00:00
Orbit: 654 x 4223 km, 34.3° (Epoch: 21 April)

Date Brightness Start Highest point End Pass type
(mag) Time Alt. Az. Time Alt. Az. Time Alt. Az.
22 Apr - 02:39:53 10° SSE 02:50:12 14° SE 02:59:55 10° ESE visible
22 Apr - 04:59:32 10° SSW 05:22:55 44° SE 05:38:51 10° E visible
22 Apr - 07:30:46 10° WSW 07:53:57 86° SSE 08:06:00 10° ENE daylight
22 Apr - 10:07:26 10° W 10:23:01 56° NNW 10:30:54 10° ENE daylight
22 Apr - 12:41:35 10° WNW 12:50:36 54° N 12:55:47 10° E daylight
22 Apr - 15:10:39 10° WNW 15:15:42 36° SW 15:19:44 10° SSE daylight
23 Apr - 03:47:26 10° SSW 04:08:15 31° SE 04:24:56 10° E visible
23 Apr - 06:15:13 10° SW 06:40:10 69° SSE 06:54:40 10° ENE visible
23 Apr - 08:50:25 10° W 09:10:20 68° NNW 09:20:14 10° ENE daylight
23 Apr - 11:26:59 10° WNW 11:38:50 50° N 11:45:08 10° ENE daylight
23 Apr - 13:58:02 10° WNW 14:05:09 78° SSW 14:09:47 10° ESE daylight
24 Apr - 02:37:44 10° S 02:53:27 20° SE 03:07:56 10° E visible
24 Apr - 05:01:00 10° SW 05:25:47 53° SE 05:42:35 10° ENE visible
24 Apr - 07:33:30 10° WSW 07:57:02 84° NNW 08:09:20 10° ENE daylight
24 Apr - 10:10:53 10° W 10:26:32 54° N 10:34:27 10° ENE daylight
24 Apr - 12:44:44 10° WNW 12:54:07 67° NNE 12:59:24 10° E daylight
24 Apr - 15:14:28 10° W 15:18:45 22° SW 15:22:17 10° SSE daylight
25 Apr - 03:48:18 10° SSW 04:11:05 39° SE 04:29:15 10° E visible
25 Apr - 06:17:29 10° SW 06:43:06 80° SSE 06:58:02 10° ENE visible
25 Apr - 08:53:45 10° W 09:13:40 63° NNW 09:23:40 10° ENE daylight
25 Apr - 11:30:15 10° WNW 11:42:26 55° N 11:48:48 10° E daylight
25 Apr - 14:01:17 10° WNW 14:08:23 53° SSW 14:12:58 10° SE daylight
26 Apr - 02:37:30 10° S 02:56:22 26° SE 03:13:43 10° E visible
26 Apr - 05:02:49 10° SW 05:28:35 63° SE 05:46:05 10° ENE visible
26 Apr - 07:36:29 10° WSW 08:00:11 76° NNW 08:12:42 10° ENE daylight
26 Apr - 10:14:17 10° WNW 10:30:05 55° N 10:38:04 10° ENE daylight
26 Apr - 12:47:50 10° WNW 12:57:32 86° NNE 13:02:54 10° ESE daylight
26 Apr - 15:18:58 10° WSW 15:21:42 14° SW 15:24:05 10° SSW daylight
27 Apr - 01:30:20 10° SSE 01:41:43 15° SE 01:53:13 10° ESE visible
27 Apr - 03:49:39 10° SSW 04:13:46 48° SE 04:33:07 10° ENE visible
27 Apr - 06:20:03 10° WSW 06:46:03 89° SSE 07:01:21 10° ENE visible
27 Apr - 08:57:09 10° W 09:17:06 60° N 09:27:11 10° ENE daylight
27 Apr - 11:33:23 10° WNW 11:45:59 64° NNE 11:52:27 10° E daylight
27 Apr - 14:04:43 10° WNW 14:11:25 36° SW 14:15:52 10° SSE daylight
28 Apr - 02:38:09 10° SSW 02:59:01 34° SE 03:18:27 10° E visible
28 Apr - 05:04:57 10° SW 05:31:20 73° SSE 05:49:27 10° ENE visible
28 Apr - 07:39:40 10° W 08:03:25 70° NNW 08:16:05 10° ENE daylight
28 Apr - 10:17:36 10° WNW 10:33:41 58° N 10:41:43 10° E daylight
28 Apr - 12:50:57 10° WNW 13:00:48 73° SSW 13:06:14 10° SE daylight
29 Apr - 01:29:00 10° S 01:44:32 21° SE 02:00:37 10° E visible
29 Apr - 03:51:23 10° SW 04:16:21 57° SE 04:36:41 10° ENE visible
29 Apr - 06:22:52 10° WSW 06:49:02 82° NNW 07:04:39 10° ENE visible
29 Apr - 09:00:34 10° W 09:20:36 60° N 09:30:45 10° ENE daylight
29 Apr - 11:36:27 10° WNW 11:49:27 77° NNE 11:56:00 10° ESE daylight
29 Apr - 14:08:27 10° W 14:14:17 24° SW 14:18:25 10° S daylight
30 Apr - 02:39:23 10° SSW 03:01:30 42° SE 03:22:33 10° ENE visible
30 Apr - 05:07:23 10° SW 05:34:06 83° SSE 05:52:43 10° ENE visible
30 Apr - 07:43:00 10° W 08:06:44 66° NNW 08:19:32 10° ENE daylight
30 Apr - 10:20:47 10° WNW 10:37:14 64° N 10:45:21 10° E daylight
30 Apr - 12:54:07 10° WNW 13:03:54 53° SW 13:09:22 10° SE daylight
01 May - 01:29:14 10° S 01:47:05 27° SE 02:06:07 10° E visible
01 May - 03:53:26 10° SW 04:18:54 66° SE 04:40:02 10° ENE visible
01 May - 06:25:55 10° WSW 06:52:08 76° NNW 07:07:59 10° ENE visible
01 May - 09:03:56 10° WNW 09:24:08 61° N 09:34:22 10° E daylight
01 May - 11:39:28 10° WNW 11:52:46 87° SSW 11:59:26 10° ESE daylight
01 May - 14:12:46 10° W 14:17:01 16° SW 14:20:21 10° SSW daylight
